EW5945 Weather Reports


Display with metric or nautical units.
time (UTC)temp
F
wind
direction
speed
MPH
gust
MPH
rain 1hr
in
rain 24hr
in
rain mn
in
humidity
%
barometer
mb
20260502170227 57 43 9.0 14.0 0.02 0.00 0.20 97 1011.9
20260502164228 57 23 9.0 14.0 0.01 0.00 0.18 97 1012.2
20260502163727 58 59 2.0 9.0 0.01 0.00 0.17 97 1012.2
20260502163228 58 289 4.0 11.0 0.01 0.00 0.16 97 1012.5
20260502162728 58 85 7.0 11.0 0.01 0.00 0.15 97 1012.5
20260502162229 58 53 7.0 13.0 0.01 0.00 0.15 97 1012.5
20260502161727 58 335 4.0 5.0 0.01 0.00 0.14 97 1012.2
20260502161227 58 11 4.0 9.0 0.01 0.00 0.14 97 1012.2
20260502160730 58 5 4.0 9.0 0.01 0.00 0.14 97 1012.2
20260502160231 57 56 4.0 11.0 0.01 0.00 0.13 97 1012.2
20260502152228 58 98 4.0 9.0 0.00 0.00 0.10 96 1012.2
20260502151727 58 7 9.0 13.0 0.00 0.00 0.10 96 1011.9
20260502151227 58 0 7.0 14.0 0.00 0.00 0.10 96 1012.2
20260502150729 58 24 7.0 18.0 0.00 0.00 0.10 96 1012.2
20260502150228 58 22 9.0 16.0 0.00 0.00 0.09 95 1011.9
20260502130728 56 312 0.0 4.0 0.00 0.00 0.09 99 1011.9
20260502130229 55 85 0.0 4.0 0.00 0.00 0.09 99 1011.9
20260502123728 55 4 2.0 4.0 0.01 0.00 0.09 99 1011.9
20260502123227 55 354 2.0 7.0 0.01 0.00 0.09 99 1011.9
20260502122727 55 45 2.0 7.0 0.01 0.00 0.08 99 1011.9
20260502122228 55 1 2.0 7.0 0.01 0.00 0.08 98 1012.2
20260502121727 55 331 2.0 7.0 0.01 0.00 0.08 98 1012.2
20260502121228 55 215 2.0 7.0 0.01 0.00 0.08 98 1012.2
20260502120729 55 217 2.0 5.0 0.01 0.00 0.07 98 1012.2
20260502120229 55 60 4.0 7.0 0.01 0.00 0.07 98 1012.2
20260502115727 55 13 4.0 9.0 0.00 0.00 0.06 98 1012.2
20260502115228 55 100 0.0 5.0 0.00 0.00 0.05 98 1012.2
20260502114728 55 164 2.0 7.0 0.00 0.00 0.04 98 1011.9
20260502114230 55 38 2.0 7.0 0.00 0.00 0.04 98 1011.9
20260502113727 55 51 7.0 11.0 0.00 0.00 0.03 98 1011.9
20260502113228 55 312 7.0 13.0 0.00 0.00 0.03 98 1011.9
20260502112728 55 20 4.0 11.0 0.00 0.00 0.03 98 1011.5
20260502112228 55 42 2.0 5.0 0.00 0.00 0.03 98 1011.5
20260502111728 55 51 4.0 7.0 0.00 0.00 0.03 98 1011.5
20260502111228 55 327 4.0 9.0 0.00 0.00 0.03 98 1011.5
20260502110729 55 34 4.0 9.0 0.00 0.00 0.03 98 1011.5
20260502110228 55 69 4.0 9.0 0.00 0.00 0.03 98 1011.2
20260502105727 55 143 4.0 9.0 0.00 0.00 0.03 98 1011.2
20260502105230 55 34 4.0 9.0 0.00 0.00 0.02 98 1011.2
20260502104727 55 157 4.0 11.0 0.00 0.00 0.02 97 1011.2
20260502104227 55 15 2.0 11.0 0.00 0.00 0.02 97 1011.2
20260502103728 55 14 2.0 7.0 0.00 0.00 0.02 97 1010.8
20260502103227 55 49 2.0 7.0 0.00 0.00 0.02 97 1010.8
20260502102727 55 66 4.0 7.0 0.00 0.00 0.02 97 1010.8
20260502102228 55 62 2.0 4.0 0.00 0.00 0.01 97 1010.8
20260502101727 55 104 4.0 7.0 0.00 0.00 0.01 97 1010.8
20260502101228 55 13 2.0 5.0 0.00 0.00 0.01 97 1010.8
20260502100727 55 70 2.0 7.0 0.00 0.00 0.01 96 1011.2
20260502100228 55 357 0.0 4.0 0.00 0.00 0.01 96 1011.2
20260502091231 55 306 0.0 4.0 0.00 0.00 0.00 94 1011.2
20260502090727 55 10 0.0 4.0 0.00 0.00 0.00 94 1010.8
20260502090228 55 32 0.0 4.0 0.00 0.00 0.00 94 1010.8
20260502071228 56 266 0.0 0.0 0.00 0.00 0.00 89 1010.8
20260502070727 56 273 0.0 2.0 0.00 0.00 0.00 89 1010.8
20260502070230 56 37 2.0 4.0 0.00 0.00 0.00 89 1010.8
20260502065727 56 326 0.0 4.0 0.00 0.00 0.00 88 1011.2
20260502065228 56 334 0.0 4.0 0.00 0.00 0.00 88 1011.2
20260502064727 56 157 0.0 4.0 0.00 0.00 0.00 88 1011.2
20260502064227 56 44 2.0 4.0 0.00 0.00 0.00 88 1011.2
20260502063227 56 216 0.0 2.0 0.00 0.00 0.00 88 1011.5
20260502062727 56 285 0.0 2.0 0.00 0.00 0.00 88 1011.5
20260502062228 56 287 0.0 0.0 0.00 0.00 0.00 87 1011.5
20260502061727 56 288 0.0 2.0 0.00 0.00 0.00 87 1011.5
20260502061228 56 274 0.0 0.0 0.00 0.00 0.00 87 1011.5
20260502060728 56 274 0.0 0.0 0.00 0.00 0.00 87 1011.2
20260502060227 56 274 0.0 0.0 0.00 0.00 0.00 87 1011.2
20260502055728 56 276 0.0 2.0 0.00 0.00 0.00 87 1011.2
20260502055228 56 14 0.0 2.0 0.00 0.00 0.00 87 1011.2
20260502054727 56 28 0.0 2.0 0.00 0.00 0.00 87 1011.2
20260502053727 56 353 0.0 2.0 0.00 0.00 0.00 87 1011.9
20260502053227 56 182 2.0 4.0 0.00 0.00 0.00 87 1011.9
20260502052727 56 341 0.0 4.0 0.00 0.00 0.00 86 1011.9
20260502052227 56 10 2.0 4.0 0.00 0.00 0.00 86 1011.9
20260502051728 56 30 0.0 4.0 0.00 0.00 0.00 86 1012.2
20260502051227 56 143 2.0 5.0 0.00 0.00 0.00 86 1012.2
20260502050727 57 38 2.0 5.0 0.00 0.00 0.00 86 1012.2
20260502050228 56 19 0.0 2.0 0.00 0.00 0.00 86 1012.2
20260502045727 57 285 0.0 4.0 0.00 0.00 0.00 86 1012.2
20260502045227 57 53 0.0 2.0 0.00 0.00 0.00 86 1012.5
20260502044728 57 300 0.0 2.0 0.00 0.00 0.00 85 1012.2
20260502044228 57 64 0.0 4.0 0.00 0.00 0.00 85 1012.2
20260502043727 57 310 2.0 5.0 0.00 0.00 0.00 85 1012.2
20260502043228 57 319 0.0 4.0 0.00 0.00 0.00 85 1012.5
20260502042727 57 263 0.0 2.0 0.00 0.00 0.00 85 1012.5
20260502042227 57 91 0.0 2.0 0.00 0.00 0.00 85 1012.5
20260502041727 57 262 0.0 2.0 0.00 0.00 0.00 84 1012.5
20260502041227 57 27 0.0 2.0 0.00 0.00 0.00 84 1012.5
20260502040727 57 34 0.0 4.0 0.00 0.00 0.00 84 1012.5
20260502040227 57 268 0.0 2.0 0.00 0.00 0.00 84 1012.5
20260502035728 57 280 0.0 0.0 0.00 0.00 0.00 84 1012.5
20260502035228 57 269 0.0 2.0 0.00 0.00 0.00 84 1012.9
20260502034727 57 279 0.0 2.0 0.00 0.00 0.00 84 1012.5
20260502034228 57 281 0.0 2.0 0.00 0.00 0.00 84 1012.5
20260502033727 57 277 0.0 2.0 0.00 0.00 0.00 84 1012.5
20260502033227 57 269 0.0 0.0 0.00 0.00 0.00 84 1012.9
20260502032727 57 273 0.0 2.0 0.00 0.00 0.00 83 1012.5
20260502032227 57 325 0.0 2.0 0.00 0.00 0.00 83 1012.5
20260502031728 57 249 0.0 0.0 0.00 0.00 0.00 84 1012.5
20260502031227 57 240 0.0 0.0 0.00 0.00 0.00 84 1012.5
20260502030728 57 202 0.0 0.0 0.00 0.00 0.00 84 1012.5
20260502030228 57 209 0.0 2.0 0.00 0.00 0.00 84 1012.9
20260502025728 57 208 0.0 2.0 0.00 0.00 0.00 84 1012.9
20260502025228 57 245 0.0 0.0 0.00 0.00 0.00 84 1012.9
20260502024728 57 297 0.0 2.0 0.00 0.00 0.00 84 1013.2
20260502024229 57 41 0.0 4.0 0.00 0.00 0.00 84 1012.9
20260502023727 57 269 0.0 0.0 0.00 0.00 0.00 84 1013.2
20260502023228 57 265 0.0 0.0 0.00 0.00 0.00 83 1013.2
20260502022727 57 268 0.0 0.0 0.00 0.00 0.00 83 1013.2
20260502022228 57 224 0.0 0.0 0.00 0.00 0.00 83 1012.9
20260502021727 57 214 0.0 0.0 0.00 0.00 0.00 83 1012.9
20260502021228 57 214 0.0 0.0 0.00 0.00 0.00 82 1012.9
20260502020727 57 213 0.0 0.0 0.00 0.00 0.00 82 1013.2
20260502020227 57 242 0.0 0.0 0.00 0.00 0.00 82 1013.2
20260502015727 57 258 0.0 0.0 0.00 0.00 0.00 82 1012.9
20260502015227 57 244 0.0 0.0 0.00 0.00 0.00 81 1012.9
20260502014727 57 283 0.0 2.0 0.00 0.00 0.00 81 1012.9
20260502014228 58 204 0.0 0.0 0.00 0.00 0.00 81 1012.9
20260502013727 58 203 0.0 0.0 0.00 0.00 0.00 80 1013.2
20260502013227 58 206 0.0 0.0 0.00 0.00 0.00 80 1013.2
20260502012727 58 182 0.0 2.0 0.00 0.00 0.00 79 1013.2
20260502012227 58 158 0.0 2.0 0.00 0.00 0.00 79 1013.2
20260502011727 58 288 0.0 4.0 0.00 0.00 0.00 79 1013.2
20260502011228 59 325 0.0 0.0 0.00 0.00 0.00 78 1013.2
20260502010727 59 281 0.0 2.0 0.00 0.00 0.00 78 1013.2
20260502010227 59 189 0.0 0.0 0.00 0.00 0.00 78 1012.9
20260502005728 59 188 0.0 0.0 0.00 0.00 0.00 78 1012.9
20260502005227 59 180 0.0 2.0 0.00 0.00 0.00 77 1012.9
20260502004729 59 56 2.0 5.0 0.00 0.00 0.00 77 1012.9
20260502004227 59 337 2.0 5.0 0.00 0.00 0.00 77 1013.2
20260502003728 59 188 0.0 4.0 0.00 0.00 0.00 76 1012.9
20260502003228 60 252 0.0 4.0 0.00 0.00 0.00 76 1012.9
20260502002727 60 197 0.0 4.0 0.00 0.00 0.00 76 1012.9
20260502002228 60 164 0.0 4.0 0.00 0.00 0.00 76 1012.9
20260502001727 60 332 0.0 4.0 0.00 0.00 0.00 75 1012.9
20260502001227 60 172 2.0 5.0 0.00 0.00 0.00 75 1012.9
20260502000727 60 126 0.0 2.0 0.00 0.00 0.00 74 1012.9
20260502000227 60 354 0.0 2.0 0.00 0.00 0.00 74 1012.9
20260501235727 61 215 0.0 2.0 0.00 0.00 0.00 73 1012.9
20260501235229 61 190 0.0 0.0 0.00 0.00 0.00 73 1012.9
20260501234727 61 163 0.0 2.0 0.00 0.00 0.00 72 1013.2
20260501234227 61 195 0.0 5.0 0.00 0.00 0.00 73 1013.2
20260501233727 61 122 0.0 2.0 0.00 0.00 0.00 72 1012.9
20260501233228 62 178 0.0 4.0 0.00 0.00 0.00 72 1012.9
20260501232727 62 108 0.0 4.0 0.00 0.00 0.00 72 1012.9
20260501232228 62 334 0.0 4.0 0.00 0.00 0.00 71 1012.9
20260501231727 62 192 0.0 4.0 0.00 0.00 0.00 72 1013.2
20260501231229 62 151 0.0 4.0 0.00 0.00 0.00 71 1013.2
20260501230727 62 183 2.0 4.0 0.00 0.00 0.00 70 1013.2
20260501230227 63 123 0.0 4.0 0.00 0.00 0.00 70 1013.2
20260501225727 63 218 0.0 5.0 0.00 0.00 0.00 70 1013.2
20260501225227 63 201 0.0 4.0 0.00 0.00 0.00 70 1012.9
20260501224727 63 217 0.0 2.0 0.00 0.00 0.00 70 1013.2
20260501224227 63 129 2.0 4.0 0.00 0.00 0.00 69 1012.9
20260501223728 63 198 2.0 4.0 0.00 0.00 0.00 69 1013.2
20260501223228 63 117 2.0 7.0 0.00 0.00 0.00 68 1012.9
20260501222728 64 196 2.0 5.0 0.00 0.00 0.00 68 1012.9
20260501222227 64 166 2.0 5.0 0.00 0.00 0.00 67 1013.2
20260501221727 64 166 2.0 4.0 0.00 0.00 0.00 67 1013.2
20260501221228 64 63 2.0 9.0 0.00 0.00 0.00 66 1013.2
20260501220727 64 178 2.0 5.0 0.00 0.00 0.00 68 1013.2
20260501220228 64 155 2.0 5.0 0.00 0.00 0.00 68 1013.2
20260501215727 64 143 2.0 5.0 0.00 0.00 0.00 68 1013.2
20260501215227 64 245 4.0 9.0 0.00 0.00 0.00 68 1013.5
20260501214729 64 97 2.0 5.0 0.00 0.00 0.00 67 1013.2
20260501214227 64 76 2.0 5.0 0.00 0.00 0.00 68 1013.2
20260501213728 64 270 2.0 4.0 0.00 0.00 0.00 68 1013.2
20260501213228 64 153 2.0 5.0 0.00 0.00 0.00 67 1013.2
20260501212729 65 139 2.0 5.0 0.00 0.00 0.00 66 1013.2
20260501212227 65 246 2.0 5.0 0.00 0.00 0.00 67 1013.2
20260501211728 65 230 2.0 5.0 0.00 0.00 0.00 66 1013.2
20260501211228 66 162 2.0 5.0 0.00 0.00 0.00 66 1013.2
20260501210729 65 94 2.0 5.0 0.00 0.00 0.00 67 1013.2
20260501210227 65 349 2.0 7.0 0.00 0.00 0.00 68 1013.2
20260501205727 65 125 4.0 5.0 0.00 0.00 0.00 66 1013.2
20260501205228 65 88 2.0 9.0 0.00 0.00 0.00 66 1013.2
20260501204727 66 191 4.0 11.0 0.00 0.00 0.00 65 1013.2
20260501204228 66 55 4.0 9.0 0.00 0.00 0.00 65 1013.2
20260501203727 66 98 2.0 5.0 0.00 0.00 0.00 66 1013.2
20260501203227 65 147 4.0 11.0 0.00 0.00 0.00 68 1013.2
20260501202727 66 105 2.0 5.0 0.00 0.00 0.00 67 1013.2
20260501202228 66 172 4.0 9.0 0.00 0.00 0.00 66 1013.2
20260501201727 66 23 2.0 9.0 0.00 0.00 0.00 66 1013.2
20260501201227 66 117 4.0 7.0 0.00 0.00 0.00 65 1013.2
20260501200727 66 123 2.0 7.0 0.00 0.00 0.00 65 1013.2
20260501200227 66 277 2.0 7.0 0.00 0.00 0.00 65 1013.2
20260501195727 66 346 4.0 11.0 0.00 0.00 0.00 66 1013.5
20260501195228 66 134 4.0 11.0 0.00 0.00 0.00 66 1013.5
20260501194727 66 52 4.0 11.0 0.00 0.00 0.00 66 1013.5
20260501194227 66 144 2.0 5.0 0.00 0.00 0.00 65 1013.5
20260501193727 66 124 2.0 5.0 0.00 0.00 0.00 66 1013.9
20260501193228 66 54 4.0 11.0 0.00 0.00 0.00 65 1013.9
20260501192728 67 105 7.0 13.0 0.00 0.00 0.00 63 1013.9
20260501192227 67 81 7.0 13.0 0.00 0.00 0.00 63 1013.9
20260501191728 66 98 4.0 11.0 0.00 0.00 0.00 64 1013.9
20260501191227 66 30 7.0 14.0 0.00 0.00 0.00 63 1013.9
20260501190728 66 22 7.0 13.0 0.00 0.00 0.00 62 1014.2
20260501190227 67 33 4.0 13.0 0.00 0.00 0.00 62 1014.2
20260501185728 66 342 7.0 13.0 0.00 0.00 0.00 61 1014.2
20260501185228 66 31 2.0 5.0 0.00 0.00 0.00 62 1014.2
20260501184727 65 78 4.0 7.0 0.00 0.00 0.00 62 1014.6
20260501184229 66 134 2.0 5.0 0.00 0.00 0.00 63 1014.2
20260501183727 66 281 4.0 11.0 0.00 0.00 0.00 60 1014.2
20260501183228 66 118 2.0 4.0 0.00 0.00 0.00 61 1014.2
20260501182727 66 39 4.0 11.0 0.00 0.00 0.00 63 1014.2
20260501182228 67 35 2.0 7.0 0.00 0.00 0.00 61 1014.6
20260501181728 66 251 2.0 7.0 0.00 0.00 0.00 61 1014.6
20260501181228 66 154 4.0 11.0 0.00 0.00 0.00 62 1014.6
20260501180727 67 108 2.0 7.0 0.00 0.00 0.00 58 1014.6
20260501180227 66 199 4.0 9.0 0.00 0.00 0.00 62 1014.6
20260501175728 66 116 2.0 7.0 0.00 0.00 0.00 62 1014.9
20260501175228 65 78 7.0 11.0 0.00 0.00 0.00 61 1014.9
20260501174728 65 129 2.0 5.0 0.00 0.00 0.00 61 1014.9
20260501174229 67 221 2.0 4.0 0.00 0.00 0.00 61 1014.6
20260501173727 67 179 4.0 7.0 0.00 0.00 0.00 65 1014.6
20260501173229 66 124 2.0 5.0 0.00 0.00 0.00 65 1014.6
20260501172728 66 195 4.0 11.0 0.00 0.00 0.00 66 1014.9
20260501172227 65 192 2.0 5.0 0.00 0.00 0.00 65 1014.9
20260501171727 64 171 2.0 5.0 0.00 0.00 0.00 64 1014.9
20260501171228 65 103 2.0 11.0 0.00 0.00 0.00 65 1014.9